CAPE
640 1130 1438 1499 1537 1787 1740 1827 1631 1554 1754 1606 1644 2141 2168 1893 1916 1806 1759 1571 1001 1336 1361 1193 785 885 927 1050 1106 1374 1454 1378 1026 669 1629 1538 1401 808 1337 1333 1102 1044 1193
740 1245 1582 1375 1455 1094 1111 1241 1190 1508 1757 1916 1946 2014 2074 1795 1714 1562 1521 1472 1001 985 956 1117 1545 1629 1579 1526 1573 1488 1337 1521 1392 1067 1526 1495 1325 1046 1189 1533 1362 1307 1318
881 1106 1351 1200 1149 1242 1797 1637 1121 1476 1950 1937 1935 1960 2042 1933 1861 1554 1421 1838 1851 1272 1489 1637 1711 1643 1590 1527 1147 838 1052 1414 1275 929 760 1177 1207 1429 1040 1501 1480 1433 1359
930 1127 705 1483 1766 1805 1775 1774 1708 1465 1765 1671 1893 2001 1989 1927 1901 1891 1689 1881 1783 1679 1785 1566 1301 1157 893 468 712 883 1343 1416 1339 1402 808 205 868 1320 1469 1309 1415 1450 1460
1114 587 1345 1788 1712 1685 1272 1316 1563 1686 1476 1607 1559 1764 1960 1991 1757 1861 1709 1703 1900 1762 1640 1550 1603 1684 1605 1442 1323 1289 1433 1344 1333 689 747 374 745 1056 1304 1156 1364 1378 1355
526 568 1606 1682 1748 1801 1763 1666 1667 1732 1632 1795 1850 1866 1831 1802 1978 1816 2002 2007 2002 1712 1601 1337 1321 1592 1604 1304 1511 1348 1368 1300 781 1195 1338 500 523 677 844 788 872 1107 1438
258 1502 1507 1708 1597 1531 1603 1595 1477 1398 1523 1483 1760 1921 1985 1990 1957 1953 1983 1980 2017 1977 1823 1756 1793 1891 1900 1848 1837 1463 1280 1093 969 668 1404 478 449 578 549 655 758 895 1239
894 844 1083 1352 1288 1641 1414 1398 1531 1537 1623 1710 1688 1848 1946 1807 1613 1663 1829 2033 2114 1891 1780 1832 1841 1811 1663 1611 1486 1239 1035 1023 913 511 935 502 1239 504 600 573 623 966 1316
692 1040 1037 873 1508 1108 1151 1201 1499 1507 1657 1708 1819 1885 1600 1433 1465 1805 1829 1967 2017 1847 1666 1639 1675 1700 1860 1259 800 776 943 1003 893 1123 877 1214 832 729 599 487 641 573 676
691 863 1179 1244 1218 990 1047 1375 1251 1347 1545 1682 1784 1884 1784 1804 1748 1876 1861 1883 1898 1816 1659 1749 1516 1481 1865 1637 1014 940 552 229 618 1100 321 1400 1080 1484 617 636 602 644 651
548 767 976 792 932 1199 1100 1112 1200 1245 1454 1705 1702 1636 1639 1644 1687 1901 1974 1945 1854 1582 1543 1501 1527 1498 1807 2053 1702 1192 455 311 258 847 363 353 605 342 298 486 463 387 310
383 731 904 697 860 1041 988 968 1346 1363 1406 1297 1434 1586 1709 1762 1885 1648 1834 1896 1512 1334 1510 1527 1489 1431 1372 1698 1696 771 606 276 151 485 164 620 983 885 546 386 329 336 253
442 479 703 627 1045 841 1133 904 739 909 904 999 1063 1374 1704 1642 1555 1439 1572 1208 1202 1003 1127 1141 1202 1232 1341 1269 1647 1359 1097 463 308 240 468 907 799 1186 1333 1118 706 553 647
292 424 440 447 822 936 835 595 548 634 740 752 843 1101 1389 1250 1348 1400 1399 1385 1059 994 1156 1362 1556 1487 1465 1609 1376 1132 1247 493 162 342 334 821 1287 764 680 590 648 851 882
122 275 210 302 486 687 691 647 565 569 652 682 864 951 1090 973 1056 1312 1301 1497 1105 886 1192 1375 1644 1161 867 920 1732 1494 1226 650 214 301 408 286 728 915 1090 842 778 784 834
46 93 126 188 420 539 567 692 825 758 828 742 820 831 798 837 1028 1155 1219 1382 1342 1127 1098 1451 1259 1097 869 1223 1514 1406 1121 617 428 504 453 363 129 557 847 1024 908 777 633
36 89 67 148 296 359 539 727 803 906 872 1050 983 852 547 890 651 910 1230 1082 1078 1302 1232 1442 1201 1157 943 818 894 995 995 828 664 741 837 779 646 230 303 668 679 641 687
98 129 174 77 231 256 511 707 723 754 995 829 975 889 937 1013 977 1009 1183 1310 1563 1186 1150 1240 1082 1159 959 983 1042 1012 976 947 1039 1018 1046 1154 1167 916 669 265 498 668 734
206 197 179 347 370 405 553 674 699 691 940 758 900 973 1151 1151 998 1176 1200 1167 1619 886 1025 1225 1137 1295 1209 1123 1059 1126 1166 1054 1190 877 1086 1133 1219 1165 1192 971 707 636 767
274 282 273 362 497 545 501 677 694 666 929 730 783 1011 851 1023 824 1306 1292 1146 1721 1501 1265 1220 1144 1155 1151 1060 807 911 1007 946 1197 1270 1086 1115 1301 1332 1371 1408 1609 1508 890
372 320 287 342 409 335 420 583 574 463 754 841 621 928 1023 1244 803 1298 1225 1276 1317 1450 1155 1478 1239 1276 1247 1007 1032 1017 825 776 1104 1122 1246 1235 1308 1336 1503 1674 1756 1656 1674
365 366 386 386 398 351 476 557 658 610 660 868 884 806 968 1070 1203 1145 1019 1129 1090 1159 1206 1384 1207 1089 938 792 763 974 770 587 748 592 687 867 1133 1284 1257 1364 1523 1668 1766
320 339 363 342 349 291 391 443 433 444 503 698 766 737 691 1007 986 1220 1010 983 993 1100 1175 1259 1161 1169 1008 1151 988 977 1132 709 725 416 666 958 1042 1185 1221 1141 1215 1364 1420
230 358 386 343 245 187 386 450 252 324 256 513 752 931 927 973 931 1181 1296 1030 1171 1317 1133 1413 1617 1307 1380 1414 1559 1318 1302 1583 1399 661 667 649 625 868 895 1056 1074 1131 1101
254 260 354 291 204 133 235 445 410 206 647 594 525 774 923 1101 1137 1203 1113 1094 979 974 1138 1316 1464 1568 1446 1529 1646 1705 1592 1462 1672 1668 748 680 675 676 811 876 926 1013 1131
239 246 275 324 207 305 244 356 413 344 164 497 562 596 753 1224 1320 1241 1066 1103 937 865 949 1100 1368 1192 1310 1299 1404 1552 1623 1718 1906 1826 1722 1533 696 683 897 1105 1101 1096 1430
CIN
-11 -2 -1 -1 -1 0 0 0 -1 -4 -1 -9 -10 0 0 0 0 -2 0 0 -4 0 0 0 -13 -3 -2 0 0 0 0 0 -1 -10 0 0 0 -9 0 0 -1 -1 0
-29 0 -2 -4 -6 -17 -17 -9 -14 -3 -3 -1 -1 -1 0 -2 -4 -5 -1 -1 -8 -3 -1 -1 0 0 0 0 0 0 0 0 0 0 0 0 0 -1 0 0 -1 0 0
-21 -7 0 -11 -13 -11 0 -1 -5 0 0 0 0 0 0 0 0 0 -1 0 0 0 0 0 0 0 0 0 -3 -14 -4 0 0 -3 -7 -1 -1 0 -1 0 0 0 0
-20 -3 -27 -2 0 0 0 0 0 0 0 0 0 0 0 0 0 0 0 0 0 0 0 0 -1 -4 -15 -34 -17 -6 0 -1 -3 0 -3 -31 -1 0 0 0 0 0 0
-4 -53 -3 0 0 0 -5 -6 -1 0 0 -2 -2 -1 0 0 -2 0 0 -1 0 0 -1 -1 -1 0 0 0 0 0 0 0 0 -8 -2 -22 -2 -1 0 0 0 0 0
-44 -36 0 0 0 0 0 0 0 0 0 0 0 0 0 -1 0 0 0 0 0 -5 -6 -6 -9 -2 0 0 0 0 0 -1 -4 -1 0 -13 -12 -6 -4 -2 -2 0 0
-81 0 0 0 0 0 0 -1 -1 -1 0 -2 -1 -2 0 0 0 0 0 0 0 -1 -2 -2 -6 -1 0 0 0 0 -1 -5 0 -4 0 -17 -20 -17 -21 -12 -6 0 0
-8 -3 -1 0 -1 0 0 0 0 0 0 0 -1 0 0 -2 -4 -2 0 0 0 0 -2 -6 -6 -2 -1 -1 0 -4 -11 -3 -1 -18 -1 -18 -1 -19 -16 -14 -11 0 0
-6 0 0 -1 0 -5 -3 -3 0 0 0 0 0 0 -3 -3 -5 0 -1 0 0 -2 -10 -13 -8 -7 -3 -15 -34 -34 -22 -12 -5 -1 -1 0 -6 -6 -10 -17 -8 -11 -5
-4 -1 0 0 0 0 0 0 0 -1 0 0 0 -1 -2 0 0 -1 -1 0 -1 -15 -18 -9 -21 -17 -7 -10 -23 -26 -57 -91 -21 0 -33 -1 -3 0 -10 -5 -9 -17 -27
-10 -1 0 0 0 0 0 -1 -1 0 0 0 -1 -7 -5 -1 0 0 -1 0 -7 -16 -18 -18 -22 -21 -14 -6 -10 -20 -63 -54 -46 -2 -30 -50 -10 -58 -78 -39 -57 -91 -118
-32 -1 0 -1 0 0 -1 0 0 0 0 0 -2 -7 0 0 -1 -1 -1 -3 -20 -30 -30 -32 -24 -34 -25 -11 -2 -46 -28 -71 -82 -29 -93 -29 0 -3 -45 -101 -133 -137 -155
-33 -15 -1 -7 0 -2 -1 0 0 0 -5 -11 -24 -11 -4 -5 -5 -13 -14 -33 -31 -58 -39 -42 -40 -45 -40 -36 -19 -9 -25 -50 -54 -85 -60 -20 -27 0 -1 -10 -77 -111 -83
-52 -25 -20 -23 -4 -1 -1 -2 -13 -13 -18 -28 -43 -33 -19 -19 -29 -29 -25 -34 -47 -52 -47 -46 -36 -52 -54 -40 -33 -31 -24 -39 -103 -82 -111 -48 -2 -63 -88 -126 -117 -75 -67
-83 -48 -54 -53 -35 -19 -15 -16 -19 -28 -25 -41 -46 -52 -39 -41 -42 -37 -35 -30 -46 -61 -48 -43 -34 -43 -54 -44 -30 -26 -26 -39 -120 -114 -113 -198 -108 -83 -63 -107 -120 -115 -107
-90 -81 -72 -56 -43 -35 -29 -25 -17 -28 -32 -36 -38 -46 -60 -44 -40 -31 -33 -29 -31 -37 -42 -36 -36 -33 -32 -18 -23 -24 -28 -46 -102 -108 -127 -170 -297 -190 -141 -110 -129 -155 -190
-75 -71 -79 -64 -49 -42 -31 -29 -23 -26 -27 -28 -28 -48 -66 -53 -59 -40 -28 -33 -40 -39 -41 -33 -30 -23 -16 -11 -24 -24 -27 -50 -77 -93 -92 -111 -144 -291 -292 -208 -209 -217 -221
-60 -55 -52 -62 -46 -56 -33 -30 -28 -30 -26 -38 -36 -40 -42 -43 -48 -42 -24 -24 -37 -43 -34 -21 -20 -17 -18 -17 -22 -20 -31 -59 -73 -91 -97 -89 -85 -122 -204 -313 -277 -241 -228
-56 -45 -45 -41 -35 -43 -40 -30 -30 -37 -29 -37 -35 -34 -37 -37 -42 -26 -24 -31 -31 -36 -29 -24 -30 -30 -23 -23 -20 -25 -31 -55 -60 -98 -100 -108 -104 -128 -121 -178 -249 -252 -231
-53 -47 -38 -31 -33 -32 -41 -41 -38 -37 -33 -42 -34 -28 -40 -34 -46 -28 -25 -32 -21 -22 -28 -30 -28 -34 -33 -31 -17 -19 -42 -74 -75 -78 -108 -122 -113 -130 -122 -128 -97 -85 -208
-47 -47 -41 -34 -39 -45 -44 -36 -36 -35 -30 -31 -41 -38 -33 -28 -43 -32 -24 -30 -27 -21 -30 -32 -28 -23 -15 -42 -23 -10 -44 -87 -70 -86 -96 -96 -113 -122 -110 -85 -76 -67 -65
-56 -57 -48 -37 -41 -50 -43 -43 -33 -35 -35 -29 -33 -37 -33 -30 -27 -28 -33 -27 -30 -24 -32 -26 -32 -20 -26 -54 -28 -22 -22 -53 -72 -121 -144 -131 -117 -123 -102 -92 -82 -77 -72
-68 -68 -61 -44 -47 -53 -44 -43 -45 -49 -44 -31 -33 -35 -33 -28 -28 -29 -34 -33 -30 -27 -22 -29 -33 -29 -18 -45 -72 -33 -7 -36 -63 -126 -119 -103 -120 -106 -99 -100 -95 -92 -98
-89 -76 -70 -56 -62 -66 -46 -25 -20 -19 -19 -23 -23 -26 -28 -30 -24 -24 -26 -30 -34 -27 -31 -23 -28 -32 -31 -23 -46 -61 -69 -51 -20 -46 -87 -110 -125 -94 -111 -88 -75 -81 -118
-99 -94 -87 -74 -77 -80 -56 -31 -18 -20 -20 -26 -35 -31 -32 -27 -22 -19 -29 -30 -34 -27 -27 -25 -25 -26 -30 -25 -27 -35 -43 -45 -62 -34 -49 -68 -84 -104 -91 -83 -80 -76 -87
-116 -104 -99 -83 -103 -58 -52 -38 -32 -22 -27 -27 -28 -26 -28 -16 -14 -18 -23 -29 -35 -31 -29 -26 -30 -31 -29 -34 -33 -36 -23 -16 -19 -24 -25 -31 -74 -77 -76 -62 -64 -71 -49
Wind_Speed
27 28 28 27 26 25 25 21 13 11 9 5 4 6 7 6 10 11 11 16 16 15 17 16 15 13 14 12 10 7 6 6 6 2 2 3 3 1 1 5 13 25 30
30 29 27 26 25 24 24 23 10 9 9 6 5 5 5 7 10 12 14 18 20 19 19 19 16 13 12 10 8 7 4 4 4 1 2 2 5 1 8 5 1 14 17
30 28 27 25 24 24 23 23 23 9 6 7 5 7 8 10 13 18 18 18 21 18 14 15 15 14 12 8 5 2 2 1 1 2 4 4 4 6 7 5 10 9 16
29 27 25 25 24 24 23 24 18 13 10 7 5 6 12 18 21 21 22 21 17 13 11 14 12 11 10 5 3 1 1 2 2 5 4 6 6 2 4 9 9 12 19
28 26 25 24 23 24 23 23 21 16 18 16 15 21 26 27 24 25 22 19 14 9 6 10 7 2 5 2 2 4 3 3 5 4 3 7 8 7 4 7 10 11 7
28 26 24 23 22 22 22 23 22 20 22 21 23 24 26 28 29 29 24 12 7 3 2 5 13 14 11 13 6 5 5 5 7 5 3 5 8 7 7 7 7 11 10
28 25 25 24 23 22 22 23 22 22 22 21 21 24 24 26 25 24 24 24 22 13 11 8 21 10 4 3 5 8 7 6 6 5 4 6 9 11 11 9 10 13 12
27 26 24 23 23 23 23 23 24 24 24 23 24 25 26 27 26 25 26 28 25 14 7 4 10 3 9 10 8 8 8 9 7 5 5 8 14 10 10 11 15 14 10
26 26 25 24 24 24 24 24 24 25 25 26 26 25 25 23 25 26 27 27 18 3 1 2 5 3 17 10 10 9 8 9 8 7 8 12 12 9 12 13 14 14 14
26 25 25 24 24 23 24 25 26 27 26 26 26 22 25 26 27 27 26 23 25 19 5 2 3 8 16 13 10 9 9 10 9 9 10 9 9 12 12 13 14 14 14
26 25 24 24 24 22 24 25 27 27 27 26 22 17 25 26 25 27 5 27 22 22 15 6 7 9 15 14 11 9 11 10 11 10 11 11 12 12 13 14 14 14 14
26 25 24 25 25 23 23 24 26 26 26 24 23 24 24 27 10 11 4 12 19 20 17 11 12 11 13 13 12 11 9 11 12 12 12 13 13 13 14 14 13 13 13
26 25 25 25 26 23 24 25 25 26 27 26 24 24 22 22 18 15 20 18 21 19 17 14 13 12 13 14 13 10 11 12 13 13 13 14 13 12 14 13 13 12 12
26 26 26 26 26 25 24 25 26 26 26 25 24 24 24 22 17 20 19 19 19 18 15 13 11 11 13 15 14 12 13 13 13 13 14 14 13 13 13 12 12 12 12
27 26 26 27 26 26 26 25 24 25 23 24 24 24 22 22 20 19 18 17 17 16 13 11 10 10 11 14 16 15 15 14 13 12 13 13 14 13 12 12 12 12 12
27 27 27 27 27 27 27 26 24 24 22 24 24 23 22 19 17 17 16 17 17 16 14 12 12 11 12 13 16 17 16 15 14 13 13 13 13 13 13 13 13 12 12
28 27 27 27 27 27 26 26 25 24 22 22 23 21 19 16 16 16 17 18 18 16 14 14 12 12 14 13 14 15 15 14 14 14 14 12 13 14 14 14 13 12 12
28 28 28 27 27 27 26 25 25 22 20 20 23 21 19 19 17 16 16 15 17 17 14 15 13 13 15 14 14 14 14 14 14 13 13 13 13 13 15 14 13 12 12
28 28 28 27 26 25 25 23 23 22 20 20 19 20 19 20 19 18 15 13 14 14 11 14 15 14 14 14 14 14 14 14 15 14 14 14 15 15 14 14 13 12 12
28 27 27 26 26 25 23 24 22 23 21 20 20 20 19 19 19 18 15 15 16 15 14 14 14 14 13 14 14 14 14 15 16 16 15 15 15 15 14 13 12 12 12
27 26 26 26 26 25 25 25 24 24 22 21 21 19 19 20 19 18 17 16 15 15 15 13 14 13 12 12 15 13 13 13 14 15 15 16 16 14 14 13 13 12 11
26 26 26 26 26 24 23 23 23 24 21 21 20 19 19 19 18 17 19 18 15 16 15 12 12 13 12 12 14 15 15 15 12 12 14 15 16 15 14 14 13 12 11
24 22 24 27 25 21 24 13 6 8 20 20 20 20 20 20 19 17 17 18 18 18 16 14 14 13 12 12 12 14 17 15 15 14 14 14 15 15 14 12 12 11 12
26 21 21 22 20 22 20 20 16 19 21 16 13 14 16 19 20 21 18 17 18 18 18 16 15 13 13 12 14 12 12 13 15 15 15 15 16 16 14 14 13 12 11
22 19 22 18 16 18 22 19 22 24 17 13 10 9 13 12 16 20 21 18 15 17 18 17 15 13 12 13 12 13 12 13 13 16 16 15 15 15 15 16 15 13 9
28 18 15 17 18 12 17 18 18 20 15 11 9 8 14 13 11 12 13 16 17 18 17 17 15 15 14 13 12 12 12 13 13 14 18 17 18 17 17 16 17 17 19
Wind_Direction
137 128 122 119 114 110 114 138 182 200 212 249 298 343 352 347 10 17 15 33 34 36 42 43 42 41 43 38 34 32 27 24 24 91 133 138 136 74 132 163 136 55 92
128 129 125 117 111 107 100 99 211 225 229 275 302 318 318 352 10 23 31 44 45 48 49 48 43 38 37 35 31 29 21 23 28 87 109 88 153 79 158 14 64 146 143
125 129 125 117 119 115 108 85 87 222 260 244 310 348 3 12 27 51 48 48 58 47 38 41 40 39 33 24 14 2 20 14 170 161 171 160 154 152 153 147 147 148 142
127 129 125 122 118 114 114 110 152 190 211 231 270 344 35 60 64 61 64 58 47 38 35 38 37 32 27 20 10 328 209 200 185 185 183 175 169 147 148 151 149 145 133
127 133 128 126 122 116 118 120 141 175 169 176 177 151 122 101 77 80 68 57 42 30 23 27 16 348 191 339 243 206 206 200 189 198 197 177 171 173 161 153 148 147 151
125 133 133 131 132 127 123 124 138 152 150 156 148 142 130 118 113 123 144 174 180 183 203 198 168 164 177 177 201 200 202 196 188 195 203 178 172 173 169 160 159 150 152
119 131 126 128 130 132 129 128 136 144 152 157 157 145 141 138 142 146 145 144 147 164 165 168 139 167 352 343 209 191 194 195 191 194 202 181 167 162 160 161 157 148 148
117 125 130 129 131 128 131 131 132 137 143 148 147 139 138 137 139 142 137 129 138 163 172 14 29 170 169 173 186 187 191 187 192 196 196 176 159 162 161 158 147 148 149
124 125 128 128 129 127 127 131 134 136 138 139 138 139 142 149 140 135 128 133 160 208 214 197 180 221 146 171 179 186 190 185 195 198 190 171 165 170 159 153 151 148 144
129 126 125 124 126 135 128 123 132 132 139 137 139 149 141 136 129 123 129 145 135 152 208 228 207 182 149 161 173 186 190 185 193 195 186 182 179 165 160 156 151 148 144
135 133 130 129 130 140 130 124 126 133 133 140 153 166 138 132 136 115 74 94 145 142 162 205 185 173 154 159 170 181 180 191 190 191 183 178 172 168 163 156 153 149 145
126 131 133 131 133 139 138 137 138 140 141 145 151 148 142 123 157 26 216 178 155 152 159 184 170 177 168 166 170 174 190 184 186 185 180 175 171 166 161 157 155 151 147
130 129 131 133 130 140 137 137 138 140 138 140 147 145 149 150 163 169 154 161 148 154 161 171 175 177 173 169 170 179 178 178 180 179 177 174 174 174 163 163 159 154 148
136 130 131 133 133 136 142 136 138 141 140 144 148 147 144 151 164 153 156 156 154 159 169 178 181 185 178 172 172 175 174 174 174 177 177 176 175 173 171 167 161 155 147
140 132 134 135 135 135 133 143 149 148 154 150 149 147 153 152 156 159 162 163 162 168 182 191 192 185 182 175 169 171 170 172 175 177 177 176 176 177 174 167 161 154 146
143 139 135 140 140 138 136 137 150 153 159 155 155 153 153 162 170 174 173 173 168 168 177 188 186 181 177 179 172 170 171 173 172 175 178 177 177 174 170 165 160 154 145
146 142 136 143 148 143 143 141 144 153 156 167 160 163 169 181 183 181 177 173 168 169 177 182 183 181 179 182 180 177 180 182 181 178 179 183 178 169 166 165 161 155 147
154 146 142 145 150 153 146 148 152 164 167 172 164 164 172 171 177 182 185 190 179 173 181 174 183 183 177 186 189 191 194 193 194 195 192 186 184 178 168 161 158 154 146
152 153 149 154 154 160 165 168 170 166 171 177 180 175 175 167 171 180 199 211 201 202 212 190 179 185 188 192 202 205 205 200 196 192 188 189 184 177 172 165 160 152 141
156 159 157 162 168 167 177 177 180 171 173 174 174 181 185 180 174 187 210 217 205 204 204 202 197 194 206 211 213 213 209 201 198 196 198 194 188 182 178 173 167 156 143
158 156 156 159 164 162 165 156 179 169 167 170 174 190 195 188 190 195 207 209 217 212 208 218 208 225 225 231 214 221 219 215 209 208 205 199 194 197 191 181 173 165 146
157 162 165 165 164 155 142 147 171 173 196 179 180 196 204 207 210 216 201 205 214 213 228 247 248 229 235 241 222 214 206 215 233 233 222 209 205 203 196 191 183 167 145
155 150 157 168 158 142 156 105 302 149 195 172 182 194 203 208 218 231 231 226 218 215 227 230 230 241 247 249 251 225 208 220 231 235 237 230 222 213 219 229 200 182 137
163 148 147 149 141 148 138 139 126 140 159 159 96 261 246 228 220 215 234 242 237 228 230 239 239 262 248 254 248 260 262 250 233 236 240 236 234 232 245 237 228 173 139
154 148 154 143 135 141 157 150 167 208 254 278 319 21 293 307 260 237 221 240 265 249 239 245 259 270 274 265 267 264 277 259 266 239 231 243 252 258 260 250 244 238 145
169 148 141 145 149 133 145 152 153 251 277 301 346 22 167 293 318 296 288 265 256 254 261 262 272 271 276 287 291 286 291 279 275 263 236 241 241 250 264 281 281 278 332